Location: Lesignano de� Bagni
(44.6500°N, 10.3000°E)
Time: 10:45:30
(UTC+00:00)

Cosmos 1992 Rocket - Pass Details

Date: 03 March 2021
Orbit: 759 x 765 km, 74.0° (Epoch: 18 April)

Event Time Altitude Azimuth Distance (km) Brightness Sun altitude
Rises 17:46:38 0° 186° (S) 3,215 7.3 -7.4°
Reaches altitude 10° 17:49:02 10° 182° (S) 2,293 6.5 -7.9°
Maximum altitude 17:54:06 54° 105° (ESE) 923 4.1 -8.8°
Drops below altitude 10° 17:59:11 10° 29° (NNE) 2,307 6.2 -9.7°
Sets 18:01:36 0° 25° (NNE) 3,236 7.0 -10.1°
